• In Russia
  • List of Countries
  • For 7 days
  • Water Temperature
  • Satellite Maps
  • Weather Map
  • Weather Widgets
  • user-avatar
    Login

    Hourly Weather Losy

    Today, 19 August, Sunday

    Time Temperature Precipitation Wind Pressure Humidity
    00:00 +18°C° 0 mm 1 mps 751 mmHg 86%
    01:00 +18°C° 0 mm 1 mps 751 mmHg 85%
    02:00 +18°C° 0 mm 1 mps 751 mmHg 86%
    03:00 +18°C° 0 mm 1 mps 751 mmHg 87%
    04:00 +18°C° 0 mm 1 mps 751 mmHg 88%
    05:00 +19°C° 0 mm 1 mps 751 mmHg 85%
    06:00 +20°C° 0 mm 1 mps 751 mmHg 83%
    07:00 +20°C° 0 mm 2 mps 751 mmHg 81%
    08:00 +23°C° 0 mm 2 mps 751 mmHg 72%
    09:00 +25°C° 0 mm 2 mps 751 mmHg 63%
    10:00 +26°C° 0 mm 2 mps 751 mmHg 54%
    11:00 +27°C° 0 mm 2 mps 751 mmHg 50%
    12:00 +27°C° 0 mm 3 mps 751 mmHg 47%
    13:00 +28°C° 0 mm 3 mps 751 mmHg 44%
    14:00 +28°C° 0 mm 3 mps 751 mmHg 44%
    15:00 +28°C° 0 mm 2 mps 750 mmHg 44%
    16:00 +28°C° 0 mm 2 mps 750 mmHg 44%
    17:00 +26°C° 0 mm 2 mps 750 mmHg 49%
    18:00 +24°C° 0 mm 1 mps 750 mmHg 55%
    19:00 +23°C° 0 mm 1 mps 750 mmHg 60%
    20:00 +22°C° 0 mm 1 mps 749 mmHg 62%
    21:00 +21°C° 0 mm 1 mps 749 mmHg 64%
    22:00 +21°C° 0 mm 1 mps 749 mmHg 66%
    23:00 +20°C° 0 mm 1 mps 749 mmHg 66%

    Tomorrow, 20 August, Monday

    Time Temperature Precipitation Wind Pressure Humidity
    00:00 +19°C° 0 mm 2 mps 749 mmHg 66%
    01:00 +19°C° 0 mm 2 mps 748 mmHg 66%
    02:00 +19°C° 0 mm 2 mps 748 mmHg 65%
    03:00 +18°C° 0 mm 2 mps 748 mmHg 65%
    04:00 +18°C° 0 mm 2 mps 747 mmHg 64%
    05:00 +19°C° 0 mm 3 mps 747 mmHg 62%
    06:00 +20°C° 0 mm 3 mps 747 mmHg 61%
    07:00 +22°C° 0 mm 4 mps 747 mmHg 59%
    08:00 +23°C° 0 mm 4 mps 747 mmHg 56%
    09:00 +26°C° 0 mm 4 mps 747 mmHg 52%
    10:00 +27°C° 0 mm 5 mps 747 mmHg 49%
    11:00 +28°C° 0 mm 5 mps 747 mmHg 48%
    12:00 +29°C° 0 mm 6 mps 746 mmHg 47%
    13:00 +29°C° 0 mm 6 mps 746 mmHg 45%
    14:00 +28°C° 0 mm 6 mps 746 mmHg 50%
    15:00 +27°C° 0 mm 5 mps 746 mmHg 55%
    16:00 +26°C° 0 mm 5 mps 746 mmHg 60%
    17:00 +25°C° 0.1 mm 5 mps 746 mmHg 65%
    18:00 +22°C° 0.1 mm 4 mps 746 mmHg 70%
    19:00 +21°C° 0.1 mm 4 mps 746 mmHg 75%
    20:00 +20°C° 0 mm 4 mps 746 mmHg 77%
    21:00 +19°C° 0 mm 4 mps 746 mmHg 78%
    22:00 +18°C° 0 mm 4 mps 746 mmHg 79%
    23:00 +17°C° 0 mm 4 mps 747 mmHg 78%

    Day after tomorrow, 21 August, Tuesday

    Time Temperature Precipitation Wind Pressure Humidity
    00:00 +15°C° 0 mm 4 mps 747 mmHg 78%
    01:00 +14°C° 0 mm 4 mps 747 mmHg 77%
    02:00 +14°C° 0 mm 4 mps 747 mmHg 78%
    03:00 +14°C° 0 mm 4 mps 748 mmHg 78%
    04:00 +14°C° 0 mm 4 mps 748 mmHg 79%
    05:00 +14°C° 0 mm 4 mps 748 mmHg 77%
    06:00 +15°C° 0 mm 5 mps 749 mmHg 75%
    07:00 +16°C° 0 mm 5 mps 749 mmHg 73%
    08:00 +17°C° 0 mm 5 mps 750 mmHg 69%
    09:00 +20°C° 0 mm 5 mps 750 mmHg 65%
    10:00 +21°C° 0 mm 5 mps 750 mmHg 60%
    11:00 +22°C° 0.1 mm 5 mps 751 mmHg 57%
    12:00 +22°C° 0.1 mm 5 mps 751 mmHg 55%
    13:00 +23°C° 0.1 mm 5 mps 751 mmHg 52%
    14:00 +22°C° 0 mm 4 mps 751 mmHg 52%
    15:00 +22°C° 0 mm 4 mps 751 mmHg 53%
    16:00 +22°C° 0 mm 4 mps 751 mmHg 53%
    17:00 +20°C° 0 mm 3 mps 751 mmHg 60%
    18:00 +18°C° 0 mm 3 mps 751 mmHg 67%
    19:00 +17°C° 0 mm 2 mps 752 mmHg 73%
    20:00 +16°C° 0 mm 2 mps 752 mmHg 75%
    21:00 +15°C° 0 mm 2 mps 752 mmHg 78%
    22:00 +14°C° 0 mm 2 mps 753 mmHg 80%
    23:00 +14°C° 0 mm 2 mps 753 mmHg 81%

    22 August, Wednesday

    Time Temperature Precipitation Wind Pressure Humidity
    00:00 +13°C° 0 mm 2 mps 753 mmHg 81%
    01:00 +13°C° 0 mm 1 mps 753 mmHg 82%
    02:00 +13°C° 0 mm 1 mps 753 mmHg 83%
    03:00 +13°C° 0 mm 2 mps 753 mmHg 84%
    04:00 +12°C° 0 mm 2 mps 753 mmHg 84%
    05:00 +13°C° 0 mm 2 mps 753 mmHg 80%
    06:00 +15°C° 0 mm 2 mps 753 mmHg 76%
    07:00 +16°C° 0 mm 2 mps 753 mmHg 71%
    08:00 +18°C° 0 mm 2 mps 753 mmHg 65%
    09:00 +20°C° 0 mm 3 mps 753 mmHg 58%
    10:00 +21°C° 0 mm 3 mps 753 mmHg 52%
    11:00 +22°C° 0 mm 3 mps 753 mmHg 50%
    12:00 +24°C° 0 mm 3 mps 753 mmHg 48%
    13:00 +25°C° 0 mm 3 mps 752 mmHg 46%
    14:00 +25°C° 0 mm 3 mps 752 mmHg 46%
    15:00 +25°C° 0 mm 3 mps 752 mmHg 47%
    16:00 +26°C° 0 mm 3 mps 751 mmHg 47%
    17:00 +24°C° 0 mm 3 mps 751 mmHg 52%
    18:00 +21°C° 0 mm 3 mps 751 mmHg 57%
    19:00 +20°C° 0 mm 3 mps 750 mmHg 63%
    20:00 +19°C° 0 mm 3 mps 750 mmHg 61%
    21:00 +18°C° 0 mm 3 mps 750 mmHg 60%
    22:00 +18°C° 0 mm 3 mps 751 mmHg 59%
    23:00 +17°C° 0 mm 3 mps 750 mmHg 58%

    23 August, Thursday

    Time Temperature Precipitation Wind Pressure Humidity
    00:00 +17°C° 0 mm 3 mps 750 mmHg 58%
    01:00 +17°C° 0 mm 3 mps 750 mmHg 58%
    02:00 +16°C° 0 mm 3 mps 750 mmHg 61%
    03:00 +16°C° 0 mm 3 mps 749 mmHg 64%
    04:00 +16°C° 0 mm 3 mps 749 mmHg 67%
    05:00 +17°C° 0 mm 3 mps 749 mmHg 68%
    06:00 +18°C° 0 mm 3 mps 749 mmHg 69%
    07:00 +19°C° 0 mm 4 mps 749 mmHg 69%
    08:00 +21°C° 0 mm 4 mps 749 mmHg 65%
    09:00 +23°C° 0 mm 4 mps 749 mmHg 60%
    10:00 +26°C° 0 mm 4 mps 749 mmHg 55%
    11:00 +27°C° 0 mm 4 mps 748 mmHg 53%
    12:00 +27°C° 0 mm 4 mps 748 mmHg 50%
    13:00 +28°C° 0 mm 4 mps 748 mmHg 47%
    14:00 +28°C° 0 mm 4 mps 747 mmHg 48%
    15:00 +28°C° 0 mm 3 mps 747 mmHg 48%
    16:00 +28°C° 0 mm 3 mps 746 mmHg 48%
    17:00 +26°C° 0 mm 3 mps 746 mmHg 52%
    18:00 +25°C° 0 mm 3 mps 746 mmHg 56%
    19:00 +24°C° 0 mm 3 mps 745 mmHg 60%
    20:00 +22°C° 0 mm 3 mps 745 mmHg 61%
    21:00 +21°C° 0 mm 3 mps 745 mmHg 61%
    22:00 +21°C° 0 mm 3 mps 745 mmHg 62%
    23:00 +21°C° 0 mm 3 mps 745 mmHg 62%

    24 August, Friday

    Time Temperature Precipitation Wind Pressure Humidity
    00:00 +21°C° 0 mm 3 mps 744 mmHg 63%
    01:00 +21°C° 0 mm 4 mps 744 mmHg 63%
    02:00 +20°C° 0 mm 4 mps 744 mmHg 64%
    03:00 +20°C° 0 mm 4 mps 743 mmHg 66%
    04:00 +20°C° 0 mm 4 mps 743 mmHg 68%
    05:00 +20°C° 0 mm 4 mps 743 mmHg 67%
    06:00 +21°C° 0 mm 4 mps 743 mmHg 67%
    07:00 +22°C° 0 mm 4 mps 742 mmHg 66%
    08:00 +23°C° 0 mm 5 mps 742 mmHg 63%
    09:00 +26°C° 0 mm 5 mps 742 mmHg 59%
    10:00 +28°C° 0 mm 5 mps 741 mmHg 55%
    11:00 +29°C° 0 mm 5 mps 741 mmHg 52%
    12:00 +30°C° 0 mm 5 mps 740 mmHg 49%
    13:00 +32°C° 0 mm 5 mps 740 mmHg 46%
    14:00 +32°C° 0 mm 4 mps 740 mmHg 48%
    15:00 +30°C° 0 mm 4 mps 739 mmHg 50%
    16:00 +30°C° 0 mm 3 mps 739 mmHg 51%
    17:00 +28°C° 0.4 mm 3 mps 739 mmHg 58%
    18:00 +26°C° 0.4 mm 4 mps 739 mmHg 64%
    19:00 +25°C° 0.4 mm 4 mps 739 mmHg 71%
    20:00 +22°C° 0.6 mm 4 mps 740 mmHg 77%
    21:00 +20°C° 0.6 mm 4 mps 740 mmHg 84%
    22:00 +19°C° 0.6 mm 4 mps 741 mmHg 90%
    23:00 +18°C° 0 mm 4 mps 741 mmHg 90%
    Show more